KISMKEYW

Guest
Details From KISM - Kissimmee Gateway
To KEYW - Key West Intl
Flight Number -
Tags Generated
Created
Modified
Stats Distance 225 nm / 416 km
Max Altitude 0 ft / 0 m
Waypoints 3
Social Downloads 0
Likes 0
Share VATSIM

Download

Looking for another format? Having issues loading an existing format? Contact us
Advertisement - Login to hide

Notes

Generated

Route

KISM MACIV KEYW

ID Type Via Altitude Latitude Longitude Leg Dist Tot Dist Heading (true) Name
O KISM APT - 0 ft / 0 m 28.28684˚ -81.44405˚ - 0 nm - Kissimmee Gateway
MACIV FIX - 0 ft / 0 m 24.55597˚ -81.76669˚ 224 nm 224 nm 185° / 184° -
O KEYW APT - 0 ft / 0 m 24.55605˚ -81.76677˚ 0 nm 224 nm 321° / 321° -

Altitude Profile

Advertisement - Login to hide

Weather


0- 5 10 15 20 25 30 35+ Temperature / ° C

Clouds and Precipitation
Forecast for 2018-05-25 18:00 UTC. Updated 9 minutes ago

Ground ~20,000 ft ~40,000 ft Winds

KISM

Details ICAO KISM (ISM)
Name Kissimmee Gateway
Region United States
Timezone America/New_York (UTC-4.0)
Stats Elevation 82 ft / 25 m (AMSL)
Location 28.289863° -81.437113°
Runways 2
Magnetic Variation 6.340° W

METAR

KISM 251656Z 07009KT 10SM SCT035 30/21 A3003 RMK AO2 SLP168 T03000206

Decode

TAF

KISM 251125Z 2512/2612 13004KT P6SM BKN250 FM251400 14007KT P6SM SCT030 SCT250 FM251700 13011KT P6SM VCTS SCT030CB BKN060 TEMPO 2518/2522 3SM TSRA BKN020CB OVC040 FM252200 14010KT P6SM VCSH SCT040 BKN080 OVC120 FM260200 14005KT P6SM VCSH SCT040 OVC080

Decode

Departure Runways

ID Width Length Bearing (true) Bearing (mag) Surface Threshold Offset Overrun Length
06 150 ft / 46 m 5,000 ft / 1,524 m 57.93° 64.27° Asphalt 0 ft / 0 m 0 ft / 0 m
15 100 ft / 30 m 6,012 ft / 1,833 m 148.21° 154.55° Asphalt 500 ft / 152 m 0 ft / 0 m
24 150 ft / 46 m 5,000 ft / 1,524 m 237.93° 244.27° Asphalt 0 ft / 0 m 485 ft / 148 m
33 100 ft / 30 m 6,012 ft / 1,833 m 328.22° 334.56° Asphalt 0 ft / 0 m 0 ft / 0 m

KEYW

Details ICAO KEYW (EYW)
Name Key West Intl
Region United States
Timezone America/New_York (UTC-4.0)
Stats Elevation 2 ft / 1 m (AMSL)
Location 24.556124° -81.759546°
Runways 1
Magnetic Variation 5.593° W

METAR

KEYW 251653Z 00000KT 5SM -RA BR FEW050 FEW070 OVC095 23/23 A2999 RMK AO2 SLP155 P0042 T02330233 $

Decode

TAF

TAF AMD KEYW 251550Z 2516/2612 09011KT 5SM -RA BR SCT020 BKN040 OVC070 TEMPO 2516/2518 VRB05KT 3/4SM +SHRA BR BKN015 BKN025 FM252000 10012G18KT P6SM -RA SCT015 SCT030 OVC060 TEMPO 2520/2524 12016G26KT 3SM +TSRA BR BKN015CB OVC030 FM260600 13011G20KT 4SM -RA OVC015 PROB30 2606/2607 4SM -TSRA BKN015CB

Decode

Destination Runways

ID Width Length Bearing (true) Bearing (mag) Surface Threshold Offset Overrun Length
09 100 ft / 30 m 4,794 ft / 1,461 m 89.38° 94.97° Asphalt 151 ft / 46 m 0 ft / 0 m
27 100 ft / 30 m 4,794 ft / 1,461 m 269.39° 274.98° Asphalt 151 ft / 46 m 0 ft / 0 m

Popular Alternatives